Regional Weather Roundup
Issued by NWS Columbia, SC

Home | Current Version | Previous Version | Text Only | Print | Product List | Glossary On
Versions: 1 2 3 4 5 6 7 8 9 10 11 12 13 14 15 16 17 18 19 20 21 22 23 24 25 26 27 28 29 30 31 32 33 34 35 36 37 38 39 40 41 42 43 44 45 46 47 48 49 50
000
ASUS42 KCAE 270510
RWRCAE
REGIONAL WEATHER ROUNDUP
NATIONAL WEATHER SERVICE COLUMBIA SC
100 AM EDT THU APR 27 2017

NOTE: "FAIR" INDICATES FEW OR NO CLOUDS BELOW 12,000 FEET WITH NO
SIGNIFICANT WEATHER AND/OR OBSTRUCTIONS TO VISIBILITY.

NOT ALL STATIONS ARE QUALITY CONTROLLED BY THE NATIONAL
WEATHER SERVICE. USE DATA WITH CAUTION...ESPECIALLY
DEWPOINT OBSERVATIONS.

SCZ001>056-GAZ040-063>065-077-270600-
...UPSTATE SOUTH CAROLINA...

CITY           SKY/WX    TMP DP  RH WIND       PRES   REMARKS
ANDERSON       PTCLDY    67  60  78 S3        29.84S
LIBERTY        MOCLDY    64  59  85 SW6       29.83S
SPARTANBURG    MOCLDY    64  59  82 CALM      29.83S
CLEMSON        MOCLDY    70  58  65 SW3       29.84F
GREENVILLE     MOCLDY    71  58  63 SW7       29.85S
GREENWOOD      MOCLDY    67  59  75 S6        29.86R
GREER          MOCLDY    66  58  75 SW8       29.84R
ROCK HILL      CLEAR     66  59  78 S7        29.85R
CHESTER        CLEAR     68  55  64 S7        29.85S
LAURENS        PTCLDY    66  59  77 S8        29.85R


...CENTRAL SOUTH CAROLINA...

CITY           SKY/WX    TMP DP  RH WIND       PRES   REMARKS
COLUMBIA APT   CLEAR     68  58  70 SW7       29.85S
COLUMBIA OWENS CLEAR     68  58  70 CALM      29.87S
MCENTIRE ANGB  CLEAR     64  60  87 CALM      29.87S
ORANGEBURG     CLEAR     64  61  90 S3        29.88S
SUMTER SHAW    CLEAR     66  59  79 S6        29.85S
NEWBERRY       CLEAR     66  59  77 S6        29.88S
AIKEN          FAIR      64  59  82 SE6       29.90S
BARNWELL       FAIR      66  63  88 SE5       29.87S
MANNING        FAIR      68  61  77 S24       29.88F
CAMDEN         FAIR      68  59  73 S6        29.88R
LANCASTER      CLEAR     66  63  88 S5        29.86S
WINNSBORO      CLEAR     64  59  82 S8        29.86S


...EASTERN AND COASTAL SOUTH CAROLINA...

CITY           SKY/WX    TMP DP  RH WIND       PRES   REMARKS
N MYRTLE BCH   CLEAR     69  65  86 SW10      29.89R
MARION         FAIR      64  57  77 S6        29.89S
HARTSVILLE     FAIR      64  55  72 S6        29.87R
FLORENCE       CLEAR     66  59  78 S8        29.88R
DARLINGTON     CLEAR     67  59  75 S10       29.88R
CHARLESTON APT CLEAR     66  61  84 S6        29.88S
MOUNT PLEASANT FAIR      70  64  83 S7        29.89S
WALTERBORO     CLEAR     61  59  94 CALM      29.89S
BEAUFORT       CLEAR     72  66  81 S7        29.88R


...EASTERN GEORGIA...

CITY           SKY/WX    TMP DP  RH WIND       PRES   REMARKS
AUGUSTA BUSH F PTCLDY    67  62  84 SE6       29.84S
AUGUSTA DANIEL PTCLDY    70  60  70 SE6       29.86S
THOMSON        PTCLDY    68  59  73 SW5       29.90R
WASHINGTON     FAIR      64  63  94 CALM      29.84S
CLAXTON        FAIR      66  66 100 CALM      29.89R
SYLVANIA       CLEAR    N/A N/A N/A SW3       29.89R
STATESBORO     CLEAR     68  63  82 S7        29.88R
SAVANNAH       CLEAR     70  62  76 S7        29.88S


...SOUTHERN NORTH CAROLINA...

CITY           SKY/WX    TMP DP  RH WIND       PRES   REMARKS
CHARLOTTE      CLEAR     66  58  75 S9        29.84S
MONROE         CLEAR     67  58  72 S6        29.84R
WADESBORO      CLEAR     69  59  71 S6        29.85R
ROCKINGHAM     CLEAR     67  61  79 S8        29.86R
RUTHERFORDTON  MOCLDY    64  60  89 S6        29.84F
ASHEVILLE      CLEAR     63  53  70 SE7       29.86S

$$



USA.gov is the U.S. government's official web portal to all federal, state and local government web resources and services.